Time,TemperatureF,DewpointF,PressureIn,WindDirection,WindDirectionDegrees,WindSpeedMPH,WindSpeedGustMPH,Humidity,HourlyPrecipIn,Conditions,Clouds,dailyrainin,SolarRadiationWatts/m^2,SoftwareType,DateUTC
2013-04-17 00:00:00,46.7,34.0,30.13,East,84,9.0,9.0,61,0.00,,,0.00,0,Wunderground v.1.15,2013-04-17 05:00:00,
2013-04-17 00:10:00,46.7,33.5,30.14,East,80,7.0,7.0,60,0.00,,,0.00,0,Wunderground v.1.15,2013-04-17 05:10:00,
2013-04-17 00:20:00,46.7,33.5,30.15,ENE,78,7.0,10.0,60,0.00,,,0.00,0,Wunderground v.1.15,2013-04-17 05:20:00,
2013-04-17 00:30:00,46.5,33.4,30.15,East,80,7.0,7.0,60,0.00,,,0.00,0,Wunderground v.1.15,2013-04-17 05:30:00,
2013-04-17 00:40:00,46.5,33.4,30.14,ENE,78,8.0,8.0,60,0.00,,,0.00,0,Wunderground v.1.15,2013-04-17 05:40:00,
2013-04-17 00:50:00,46.4,34.1,30.14,ENE,66,8.0,8.0,62,0.00,,,0.00,0,Wunderground v.1.15,2013-04-17 05:50:00,
2013-04-17 01:00:00,46.2,33.9,30.14,ENE,60,9.0,12.0,62,0.00,,,0.00,0,Wunderground v.1.15,2013-04-17 06:00:00,
2013-04-17 01:10:00,46.1,33.8,30.14,ENE,66,8.0,8.0,62,0.00,,,0.00,0,Wunderground v.1.15,2013-04-17 06:10:00,
2013-04-17 01:20:00,46.1,34.2,30.14,ENE,57,8.0,11.0,63,0.00,,,0.00,0,Wunderground v.1.15,2013-04-17 06:20:00,
2013-04-17 01:29:00,46.0,33.7,30.14,East,97,9.0,11.0,62,0.00,,,0.00,0,Wunderground v.1.15,2013-04-17 06:29:00,
2013-04-17 01:40:00,45.8,33.9,30.13,ENE,59,9.0,11.0,63,0.00,,,0.00,0,Wunderground v.1.15,2013-04-17 06:40:00,
2013-04-17 01:50:00,45.7,33.8,30.11,ENE,74,9.0,12.0,63,0.00,,,0.00,0,Wunderground v.1.15,2013-04-17 06:50:00,
2013-04-17 02:00:00,45.7,33.8,30.11,ENE,67,12.0,12.0,63,0.00,,,0.00,0,Wunderground v.1.15,2013-04-17 07:00:00,
2013-04-17 02:09:00,45.5,33.6,30.11,ENE,59,10.0,10.0,63,0.00,,,0.00,0,Wunderground v.1.15,2013-04-17 07:09:00,
2013-04-17 02:20:00,45.4,33.9,30.09,NE,54,9.0,11.0,64,0.00,,,0.00,0,Wunderground v.1.15,2013-04-17 07:20:00,
2013-04-17 02:30:00,45.4,33.9,30.09,NE,51,12.0,12.0,64,0.00,,,0.00,0,Wunderground v.1.15,2013-04-17 07:30:00,
2013-04-17 02:40:00,44.9,34.6,30.09,East,82,10.0,10.0,67,0.00,,,0.00,0,Wunderground v.1.15,2013-04-17 07:40:00,
2013-04-17 02:50:00,44.8,34.5,30.08,ENE,69,9.0,12.0,67,0.00,,,0.00,0,Wunderground v.1.15,2013-04-17 07:50:00,
2013-04-17 03:00:00,44.8,34.5,30.08,ENE,60,11.0,14.0,67,0.00,,,0.00,0,Wunderground v.1.15,2013-04-17 08:00:00,
2013-04-17 03:10:00,44.9,33.8,30.06,ENE,78,11.0,12.0,65,0.00,,,0.00,0,Wunderground v.1.15,2013-04-17 08:10:00,
2013-04-17 03:20:00,44.9,33.8,30.06,ENE,59,11.0,11.0,65,0.00,,,0.00,0,Wunderground v.1.15,2013-04-17 08:20:00,
2013-04-17 03:30:00,44.9,33.8,30.06,NE,55,11.0,12.0,65,0.00,,,0.00,0,Wunderground v.1.15,2013-04-17 08:30:00,
2013-04-17 03:40:00,44.8,33.7,30.04,ENE,68,11.0,11.0,65,0.00,,,0.00,0,Wunderground v.1.15,2013-04-17 08:40:00,
2013-04-17 03:50:00,44.8,34.1,30.05,ENE,71,9.0,9.0,66,0.00,,,0.00,0,Wunderground v.1.15,2013-04-17 08:50:00,
2013-04-17 04:00:00,44.8,34.1,30.05,ENE,70,10.0,10.0,66,0.00,,,0.00,0,Wunderground v.1.15,2013-04-17 09:00:00,
2013-04-17 04:09:00,44.6,34.3,30.06,NE,52,10.0,12.0,67,0.00,,,0.00,0,Wunderground v.1.15,2013-04-17 09:09:00,
2013-04-17 04:20:00,44.3,34.8,30.04,ENE,60,9.0,9.0,69,0.00,,,0.00,0,Wunderground v.1.15,2013-04-17 09:20:00,
2013-04-17 04:30:00,44.2,34.7,30.04,ENE,59,11.0,12.0,69,0.00,,,0.00,0,Wunderground v.1.15,2013-04-17 09:30:00,
2013-04-17 04:40:00,44.1,34.9,30.02,ENE,67,12.0,12.0,70,0.00,,,0.00,0,Wunderground v.1.15,2013-04-17 09:40:00,
2013-04-17 04:50:00,43.9,35.5,30.01,ENE,58,11.0,11.0,72,0.00,,,0.00,0,Wunderground v.1.15,2013-04-17 09:50:00,
2013-04-17 05:00:00,43.9,35.5,30.01,ENE,64,10.0,10.0,72,0.00,,,0.00,0,Wunderground v.1.15,2013-04-17 10:00:00,
2013-04-17 05:09:00,43.8,35.4,30.00,NE,49,8.0,8.0,72,0.00,,,0.00,0,Wunderground v.1.15,2013-04-17 10:09:00,
2013-04-17 05:20:00,43.6,35.5,30.00,ENE,71,8.0,10.0,73,0.00,,,0.00,0,Wunderground v.1.15,2013-04-17 10:20:00,
2013-04-17 05:30:00,43.3,35.9,30.00,NE,48,6.0,7.0,75,0.00,,,0.00,0,Wunderground v.1.15,2013-04-17 10:30:00,
2013-04-17 05:40:00,43.1,36.4,29.99,NE,50,9.0,12.0,77,0.00,,,0.01,0,Wunderground v.1.15,2013-04-17 10:40:00,
2013-04-17 05:50:00,42.9,36.8,29.98,NE,46,5.0,6.0,79,0.00,,,0.01,0,Wunderground v.1.15,2013-04-17 10:50:00,
2013-04-17 06:00:00,42.6,37.2,29.98,NNE,30,3.0,5.0,81,0.04,,,0.02,0,Wunderground v.1.15,2013-04-17 11:00:00,
2013-04-17 06:10:00,42.5,37.4,30.01,North,11,1.0,1.0,82,0.16,,,0.04,0,Wunderground v.1.15,2013-04-17 11:10:00,
2013-04-17 06:20:00,42.3,38.1,30.09,SW,216,2.0,2.0,85,0.44,,,0.09,0,Wunderground v.1.15,2013-04-17 11:20:00,
2013-04-17 06:30:00,41.9,38.0,30.09,ENE,64,1.0,1.0,86,0.33,,,0.17,0,Wunderground v.1.15,2013-04-17 11:30:00,
2013-04-17 06:39:00,41.8,38.5,30.05,NNE,28,0.0,0.0,88,0.24,,,0.21,0,Wunderground v.1.15,2013-04-17 11:39:00,
2013-04-17 06:50:00,41.5,38.5,30.01,NE,51,6.0,10.0,89,0.21,,,0.24,0,Wunderground v.1.15,2013-04-17 11:50:00,
2013-04-17 07:00:00,41.3,38.6,30.01,ENE,64,9.0,10.0,90,0.25,,,0.28,0,Wunderground v.1.15,2013-04-17 12:00:00,
2013-04-17 07:10:00,41.2,38.5,29.99,NE,55,13.0,14.0,90,0.32,,,0.32,0,Wunderground v.1.15,2013-04-17 12:10:00,
2013-04-17 07:20:00,41.1,38.7,29.91,NE,54,16.0,16.0,91,0.24,,,0.36,0,Wunderground v.1.15,2013-04-17 12:20:00,
2013-04-17 07:30:00,41.2,38.8,29.91,ENE,65,13.0,13.0,91,0.22,,,0.39,0,Wunderground v.1.15,2013-04-17 12:30:00,
2013-04-17 07:39:00,41.2,38.8,29.96,ENE,66,11.0,13.0,91,0.21,,,0.42,0,Wunderground v.1.15,2013-04-17 12:39:00,
2013-04-17 07:50:00,41.2,39.1,29.93,ENE,65,15.0,15.0,92,0.22,,,0.47,0,Wunderground v.1.15,2013-04-17 12:50:00,
2013-04-17 08:00:00,41.3,39.2,29.93,NE,47,14.0,15.0,92,0.20,,,0.50,0,Wunderground v.1.15,2013-04-17 13:00:00,
2013-04-17 08:10:00,41.2,39.1,29.92,ENE,63,16.0,20.0,92,0.11,,,0.52,0,Wunderground v.1.15,2013-04-17 13:10:00,
2013-04-17 08:20:00,41.3,39.2,29.82,ESE,107,17.0,17.0,92,0.07,,,0.53,0,Wunderground v.1.15,2013-04-17 13:20:00,
2013-04-17 08:30:00,41.6,39.4,29.82,WSW,249,4.0,4.0,92,0.00,,,0.53,0,Wunderground v.1.15,2013-04-17 13:30:00,
2013-04-17 08:40:00,41.8,39.6,29.98,NW,324,3.0,3.0,92,0.00,,,0.53,0,Wunderground v.1.15,2013-04-17 13:40:00,
2013-04-17 08:50:00,41.8,39.6,29.99,NW,314,1.0,1.0,92,0.00,,,0.53,0,Wunderground v.1.15,2013-04-17 13:50:00,
2013-04-17 09:00:00,41.9,39.7,29.99,NW,314,0.0,0.0,92,0.00,,,0.53,0,Wunderground v.1.15,2013-04-17 14:00:00,
2013-04-17 09:10:00,41.9,39.7,30.00,NW,314,0.0,0.0,92,0.00,,,0.53,7,Wunderground v.1.15,2013-04-17 14:10:00,
2013-04-17 09:19:00,41.9,39.7,29.97,North,9,4.0,7.0,92,0.00,,,0.53,12,Wunderground v.1.15,2013-04-17 14:19:00,
2013-04-17 09:29:00,41.9,39.7,29.97,North,10,7.0,7.0,92,0.00,,,0.53,9,Wunderground v.1.15,2013-04-17 14:29:00,
2013-04-17 09:40:00,41.9,39.7,29.99,North,10,0.0,0.0,92,0.00,,,0.53,9,Wunderground v.1.15,2013-04-17 14:40:00,
2013-04-17 09:49:00,42.1,39.9,29.97,NNE,33,5.0,5.0,92,0.00,,,0.53,12,Wunderground v.1.15,2013-04-17 14:49:00,
2013-04-17 10:00:00,42.1,39.9,29.97,NNE,33,3.0,3.0,92,0.00,,,0.53,14,Wunderground v.1.15,2013-04-17 15:00:00,
2013-04-17 10:10:00,42.1,39.9,29.96,NNE,29,1.0,5.0,92,0.00,,,0.53,19,Wunderground v.1.15,2013-04-17 15:10:00,
2013-04-17 10:19:00,42.1,39.9,29.94,NNE,15,5.0,5.0,92,0.00,,,0.53,37,Wunderground v.1.15,2013-04-17 15:19:00,
2013-04-17 10:30:00,42.2,40.0,29.94,NNE,27,2.0,4.0,92,0.00,,,0.53,32,Wunderground v.1.15,2013-04-17 15:30:00,
2013-04-17 10:39:00,42.3,40.1,29.94,NNE,15,5.0,5.0,92,0.00,,,0.53,30,Wunderground v.1.15,2013-04-17 15:39:00,
2013-04-17 10:50:00,42.2,39.8,29.94,NE,40,5.0,5.0,91,0.00,,,0.53,42,Wunderground v.1.15,2013-04-17 15:50:00,
2013-04-17 11:00:00,42.1,39.7,29.94,NE,36,6.0,6.0,91,0.00,,,0.53,58,Wunderground v.1.15,2013-04-17 16:00:00,
2013-04-17 11:10:00,42.2,39.8,29.92,NNE,30,4.0,12.0,91,0.00,,,0.53,79,Wunderground v.1.15,2013-04-17 16:10:00,
2013-04-17 11:20:00,42.3,39.9,29.90,NNE,27,6.0,6.0,91,0.00,,,0.53,79,Wunderground v.1.15,2013-04-17 16:20:00,
2013-04-17 11:30:00,42.5,40.1,29.90,NNE,23,5.0,5.0,91,0.00,,,0.53,81,Wunderground v.1.15,2013-04-17 16:30:00,
2013-04-17 11:40:00,42.5,40.1,29.90,NNE,28,4.0,5.0,91,0.00,,,0.53,74,Wunderground v.1.15,2013-04-17 16:40:00,
2013-04-17 11:50:00,42.6,40.4,29.91,NNE,19,5.0,5.0,92,0.00,,,0.53,51,Wunderground v.1.15,2013-04-17 16:50:00,
2013-04-17 11:59:00,42.3,40.1,29.91,NNE,33,8.0,11.0,92,0.00,,,0.53,33,Wunderground v.1.15,2013-04-17 16:59:00,
2013-04-17 12:10:00,42.2,40.0,29.86,NNE,19,6.0,7.0,92,0.00,,,0.53,25,Wunderground v.1.15,2013-04-17 17:10:00,
2013-04-17 12:19:00,42.2,40.0,29.91,NNE,19,4.0,4.0,92,0.00,,,0.53,33,Wunderground v.1.15,2013-04-17 17:19:00,
2013-04-17 12:30:00,42.3,40.1,29.91,NNE,29,3.0,5.0,92,0.00,,,0.53,35,Wunderground v.1.15,2013-04-17 17:30:00,
2013-04-17 12:39:00,42.3,40.4,29.91,NNE,13,7.0,7.0,93,0.00,,,0.53,46,Wunderground v.1.15,2013-04-17 17:39:00,
2013-04-17 12:49:00,42.3,40.4,29.89,North,9,1.0,5.0,93,0.00,,,0.53,46,Wunderground v.1.15,2013-04-17 17:49:00,
2013-04-17 13:00:00,42.2,40.3,29.89,NNE,27,3.0,10.0,93,0.00,,,0.53,40,Wunderground v.1.15,2013-04-17 18:00:00,
2013-04-17 13:10:00,42.2,40.3,29.83,WSW,246,11.0,11.0,93,0.00,,,0.53,23,Wunderground v.1.15,2013-04-17 18:10:00,
2013-04-17 13:19:00,42.2,40.3,29.89,NW,308,1.0,1.0,93,0.00,,,0.53,30,Wunderground v.1.15,2013-04-17 18:19:00,
2013-04-17 13:29:00,42.2,40.6,29.89,North,11,2.0,5.0,94,0.00,,,0.53,37,Wunderground v.1.15,2013-04-17 18:29:00,
2013-04-17 13:39:00,42.2,40.6,29.84,NNW,346,3.0,3.0,94,0.00,,,0.53,16,Wunderground v.1.15,2013-04-17 18:39:00,
2013-04-17 13:49:00,42.3,40.7,29.86,North,9,2.0,2.0,94,0.00,,,0.53,28,Wunderground v.1.15,2013-04-17 18:49:00,
2013-04-17 13:59:00,42.5,40.9,29.86,North,5,3.0,5.0,94,0.00,,,0.53,51,Wunderground v.1.15,2013-04-17 18:59:00,
2013-04-17 14:10:00,42.6,41.0,29.86,North,360,4.0,4.0,94,0.00,,,0.53,32,Wunderground v.1.15,2013-04-17 19:10:00,
2013-04-17 14:20:00,42.8,41.2,29.86,North,360,3.0,3.0,94,0.00,,,0.53,30,Wunderground v.1.15,2013-04-17 19:20:00,
2013-04-17 14:30:00,43.1,41.5,29.86,NNE,33,5.0,6.0,94,0.00,,,0.54,51,Wunderground v.1.15,2013-04-17 19:30:00,
2013-04-17 14:39:00,43.3,41.7,29.85,NNE,30,5.0,9.0,94,0.00,,,0.54,91,Wunderground v.1.15,2013-04-17 19:39:00,
2013-04-17 14:50:00,43.5,42.2,29.83,NNE,27,6.0,7.0,95,0.00,,,0.54,60,Wunderground v.1.15,2013-04-17 19:50:00,
2013-04-17 15:00:00,43.6,42.3,29.83,North,9,5.0,5.0,95,0.00,,,0.54,37,Wunderground v.1.15,2013-04-17 20:00:00,
2013-04-17 15:10:00,43.9,42.6,29.84,NNE,23,4.0,4.0,95,0.00,,,0.54,47,Wunderground v.1.15,2013-04-17 20:10:00,
2013-04-17 15:20:00,44.1,42.8,29.82,NE,34,5.0,6.0,95,0.00,,,0.54,33,Wunderground v.1.15,2013-04-17 20:20:00,
2013-04-17 15:30:00,44.1,42.5,29.82,ENE,67,10.0,13.0,94,0.00,,,0.54,123,Wunderground v.1.15,2013-04-17 20:30:00,
2013-04-17 15:39:00,43.9,42.3,29.76,NNE,14,8.0,9.0,94,0.00,,,0.54,30,Wunderground v.1.15,2013-04-17 20:39:00,
2013-04-17 15:50:00,43.5,41.9,29.79,ENE,57,10.0,10.0,94,0.00,,,0.54,28,Wunderground v.1.15,2013-04-17 20:50:00,
2013-04-17 16:00:00,43.3,41.7,29.79,NE,48,8.0,8.0,94,0.00,,,0.54,25,Wunderground v.1.15,2013-04-17 21:00:00,
2013-04-17 16:10:00,43.3,41.4,29.79,NNE,21,6.0,6.0,93,0.00,,,0.54,23,Wunderground v.1.15,2013-04-17 21:10:00,
2013-04-17 16:19:00,42.9,41.0,29.77,NNE,32,9.0,12.0,93,0.00,,,0.54,25,Wunderground v.1.15,2013-04-17 21:19:00,
2013-04-17 16:40:00,42.5,40.3,29.78,NE,50,8.0,12.0,92,0.12,,,0.57,21,Wunderground v.1.15,2013-04-17 21:40:00,
2013-04-17 16:50:00,42.3,40.1,29.80,North,5,8.0,9.0,92,0.07,,,0.58,12,Wunderground v.1.15,2013-04-17 21:50:00,
2013-04-17 17:00:00,42.5,40.3,29.80,WSW,242,4.0,4.0,92,0.05,,,0.59,0,Wunderground v.1.15,2013-04-17 22:00:00,
2013-04-17 17:10:00,42.3,40.1,29.87,ENE,69,4.0,4.0,92,0.18,,,0.64,0,Wunderground v.1.15,2013-04-17 22:10:00,
2013-04-17 17:20:00,42.2,40.0,29.88,ENE,65,0.0,0.0,92,0.10,,,0.66,0,Wunderground v.1.15,2013-04-17 22:20:00,
2013-04-17 17:30:00,42.2,40.0,29.88,ENE,65,0.0,0.0,92,0.15,,,0.68,0,Wunderground v.1.15,2013-04-17 22:30:00,
2013-04-17 17:40:00,42.2,40.0,29.91,NNE,26,0.0,5.0,92,0.29,,,0.72,0,Wunderground v.1.15,2013-04-17 22:40:00,
2013-04-17 17:50:00,41.8,39.6,29.85,NNE,17,7.0,9.0,92,0.11,,,0.75,0,Wunderground v.1.15,2013-04-17 22:50:00,
2013-04-17 18:00:00,41.5,39.6,29.85,NE,43,12.0,19.0,93,0.09,,,0.76,7,Wunderground v.1.15,2013-04-17 23:00:00,
2013-04-17 18:10:00,41.1,39.2,29.74,NE,40,18.0,24.0,93,0.13,,,0.78,14,Wunderground v.1.15,2013-04-17 23:10:00,
2013-04-17 18:20:00,40.9,39.0,29.64,NNE,23,18.0,18.0,93,0.04,,,0.78,28,Wunderground v.1.15,2013-04-17 23:20:00,
2013-04-17 18:30:00,40.9,39.0,29.64,NNE,15,15.0,15.0,93,0.00,,,0.78,9,Wunderground v.1.15,2013-04-17 23:30:00,
2013-04-17 18:40:00,41.1,39.0,29.69,NNE,22,8.0,8.0,92,0.00,,,0.78,0,Wunderground v.1.15,2013-04-17 23:40:00,
2013-04-17 18:50:00,41.2,39.1,29.76,NNE,25,5.0,10.0,92,0.00,,,0.78,0,Wunderground v.1.15,2013-04-17 23:50:00,
2013-04-17 19:00:00,41.3,38.9,29.76,North,355,3.0,4.0,91,0.00,,,0.78,0,Wunderground v.1.15,2013-04-18 00:00:00,
2013-04-17 19:10:00,41.3,38.9,29.77,NNW,328,2.0,2.0,91,0.00,,,0.78,0,Wunderground v.1.15,2013-04-18 00:10:00,
2013-04-17 19:20:00,41.3,38.9,29.80,NNW,327,3.0,5.0,91,0.00,,,0.78,0,Wunderground v.1.15,2013-04-18 00:20:00,
2013-04-17 19:30:00,41.3,38.6,29.80,NNW,335,5.0,6.0,90,0.00,,,0.78,0,Wunderground v.1.15,2013-04-18 00:30:00,
2013-04-17 19:40:00,41.3,38.6,29.80,NW,312,4.0,4.0,90,0.00,,,0.78,0,Wunderground v.1.15,2013-04-18 00:40:00,
2013-04-17 19:50:00,41.3,38.3,29.80,NNW,344,4.0,4.0,89,0.00,,,0.78,0,Wunderground v.1.15,2013-04-18 00:50:00,
2013-04-17 20:00:00,41.2,38.2,29.80,NNW,331,3.0,5.0,89,0.00,,,0.78,9,Wunderground v.1.15,2013-04-18 01:00:00,
2013-04-17 20:10:00,41.2,38.2,29.81,NW,313,3.0,12.0,89,0.00,,,0.78,5,Wunderground v.1.15,2013-04-18 01:10:00,
2013-04-17 20:20:00,41.2,38.2,29.82,NNW,334,7.0,7.0,89,0.00,,,0.78,0,Wunderground v.1.15,2013-04-18 01:20:00,
2013-04-17 20:30:00,40.9,37.9,29.82,NNW,334,7.0,7.0,89,0.00,,,0.78,0,Wunderground v.1.15,2013-04-18 01:30:00,
2013-04-17 20:40:00,40.8,37.5,29.81,NNW,340,7.0,7.0,88,0.00,,,0.78,0,Wunderground v.1.15,2013-04-18 01:40:00,
2013-04-17 20:50:00,40.6,37.3,29.82,North,355,7.0,7.0,88,0.00,,,0.78,0,Wunderground v.1.15,2013-04-18 01:50:00,
2013-04-17 21:00:00,40.5,37.2,29.82,NNW,333,7.0,7.0,88,0.00,,,0.78,0,Wunderground v.1.15,2013-04-18 02:00:00,
2013-04-17 21:10:00,40.3,37.0,29.82,NW,321,6.0,12.0,88,0.00,,,0.78,0,Wunderground v.1.15,2013-04-18 02:10:00,
2013-04-17 21:20:00,40.2,36.9,29.82,North,355,9.0,9.0,88,0.00,,,0.78,0,Wunderground v.1.15,2013-04-18 02:20:00,
2013-04-17 21:30:00,40.1,36.5,29.82,NNW,342,9.0,15.0,87,0.00,,,0.78,0,Wunderground v.1.15,2013-04-18 02:30:00,
2013-04-17 21:40:00,40.1,36.5,29.82,North,5,7.0,11.0,87,0.00,,,0.78,0,Wunderground v.1.15,2013-04-18 02:40:00,
2013-04-17 21:50:00,39.9,36.3,29.83,North,5,5.0,5.0,87,0.00,,,0.78,0,Wunderground v.1.15,2013-04-18 02:50:00,
2013-04-17 22:00:00,39.9,36.3,29.83,NNW,347,6.0,6.0,87,0.00,,,0.78,0,Wunderground v.1.15,2013-04-18 03:00:00,
2013-04-17 22:10:00,39.8,36.2,29.82,NNW,346,8.0,8.0,87,0.00,,,0.78,0,Wunderground v.1.15,2013-04-18 03:10:00,
2013-04-17 22:20:00,39.6,36.0,29.81,NNE,17,9.0,12.0,87,0.00,,,0.78,0,Wunderground v.1.15,2013-04-18 03:20:00,
2013-04-17 22:30:00,39.5,36.0,29.81,NNW,343,11.0,11.0,87,0.00,,,0.78,0,Wunderground v.1.15,2013-04-18 03:30:00,
2013-04-17 22:40:00,39.2,35.9,29.82,NNE,19,8.0,15.0,88,0.00,,,0.78,0,Wunderground v.1.15,2013-04-18 03:40:00,
2013-04-17 22:50:00,39.1,35.8,29.83,NNW,344,12.0,12.0,88,0.00,,,0.78,0,Wunderground v.1.15,2013-04-18 03:50:00,
2013-04-17 23:00:00,39.1,35.8,29.83,North,360,13.0,17.0,88,0.00,,,0.78,0,Wunderground v.1.15,2013-04-18 04:00:00,
2013-04-17 23:10:00,38.9,35.6,29.82,North,355,11.0,11.0,88,0.00,,,0.78,0,Wunderground v.1.15,2013-04-18 04:10:00,
2013-04-17 23:20:00,38.6,35.4,29.81,North,5,11.0,11.0,88,0.00,,,0.78,0,Wunderground v.1.15,2013-04-18 04:20:00,
2013-04-17 23:30:00,38.3,35.3,29.81,North,360,12.0,13.0,89,0.00,,,0.78,0,Wunderground v.1.15,2013-04-18 04:30:00,
2013-04-17 23:40:00,38.0,35.0,29.76,North,350,12.0,12.0,89,0.00,,,0.78,0,Wunderground v.1.15,2013-04-18 04:40:00,
2013-04-17 23:50:00,37.9,34.9,29.80,NNW,335,8.0,8.0,89,0.00,,,0.78,0,Wunderground v.1.15,2013-04-18 04:50:00,